Weather History for Wainwright, AK

Change the Weather History Date:

Tuesday, May 14, 2013

  Actual Average (PABR) Record (PABR)
Temperature  
Mean Temperature 14 °F 20 °F  
Max Temperature 18 °F 25 °F 39 °F (1930)
Min Temperature 10 °F 16 °F -11 °F (2000)
Degree Days  
Heating Degree Days 52 45  
Month to date heating degree days 682  
Since 1 July heating degree days 17829  
Cooling Degree Days 0    
Month to date cooling degree days  
Year to date cooling degree days  
Moisture  
Dew Point 8 °F    
Average Humidity 78    
Maximum Humidity 86    
Minimum Humidity 70    
Precipitation  
Precipitation 0.00 in 0.01 in 0.08 in (2005)
Month to date precipitation 0.07  
Year to date precipitation 0.59  
Snow  
Snow 0.00 in 0.10 in 1.50 in (2005)
Month to date snowfall 1.3  
Since 1 July snowfall 35.6  
Snow Depth -    
Sea Level Pressure  
Sea Level Pressure 29.61 in    
Wind  
Wind Speed 11 mph (SSW)    
Max Wind Speed 16 mph    
Max Gust Speed -    
Visibility 4 miles    
Events Fog , Snow    
T = Trace of Precipitation, MM = Missing Value Source: NWS Daily Summary

Daily Weather History Graph

Daily Weather History Graph

Search for Another Location

Airport:

Trip Planner

Search our weather history database for the weather conditions in past years. The results will help you decide how hot, cold, wet, or windy it might be!

Date:

Astronomy

May. 14, 2013 Rise Set
Actual Time 3:08 AM AKDT 2:03 AM AKDT
Civil Twilight Sun does not rise Sun does not rise
Nautical Twilight Sun does not rise Sun does not rise
Astronomical Twilight Sun does not rise Sun does not rise
Moon 7:38 AM AKDT (5/14) 4:46 AM AKDT (5/14)
Length of Visible Light 24h 00m
Length of Day
22h 55m
Waxing Crescent, 20% of the Moon is Illuminated
May 14
Waxing Crescent
May 17
First Quarter
May 24
Full
May 31
Last Quarter
Jun 8
New

Hourly Weather History & Observations

Time (AKDT) Temp. Windchill Dew Point Humidity Pressure Visibility Wind Dir Wind Speed Gust Speed Precip Events Conditions
12:53 AM 12.0 °F -3.4 °F 5.0 °F 73% 29.74 in 9.0 mi WNW 13.8 mph - 0.00 in   Overcast
1:30 AM 12.2 °F -1.0 °F 6.8 °F 79% 29.73 in 1.8 mi WNW 10.4 mph - 0.00 in Snow Light Snow
1:40 AM 12.2 °F -3.1 °F 5.0 °F 73% 29.73 in 3.0 mi WNW 13.8 mph - 0.00 in Snow Light Snow
1:53 AM 12.0 °F -2.0 °F 5.0 °F 73% 29.73 in 5.0 mi WNW 11.5 mph - 0.00 in Snow Light Snow
2:53 AM 12.0 °F -1.3 °F 5.0 °F 73% 29.72 in 10.0 mi West 10.4 mph - 0.00 in   Overcast
3:53 AM 12.0 °F -2.0 °F 5.0 °F 73% 29.72 in 10.0 mi West 11.5 mph - 0.00 in   Overcast
4:53 AM 12.0 °F -2.0 °F 5.0 °F 73% 29.71 in 10.0 mi West 11.5 mph - 0.00 in   Overcast
5:53 AM 10.9 °F 0.2 °F 6.1 °F 81% 29.70 in 4.0 mi NW 6.9 mph - 0.00 in Snow Light Snow
6:53 AM 12.0 °F 0.5 °F 5.0 °F 73% 29.69 in 10.0 mi WNW 8.1 mph - 0.00 in   Overcast
7:53 AM 12.0 °F -0.4 °F 5.0 °F 73% 29.68 in 7.0 mi West 9.2 mph - 0.00 in Snow Light Snow
8:53 AM 12.0 °F 0.5 °F 3.9 °F 70% 29.68 in 10.0 mi WSW 8.1 mph - 0.00 in   Overcast
9:05 AM 10.4 °F -1.5 °F 5.0 °F 79% 29.67 in 1.8 mi WSW 8.1 mph - 0.00 in Snow Light Snow
9:12 AM 12.2 °F -0.2 °F 6.8 °F 79% 29.67 in 1.8 mi WSW 9.2 mph - 0.00 in Snow Light Snow
9:20 AM 12.2 °F -0.2 °F 6.8 °F 79% 29.67 in 2.0 mi WSW 9.2 mph - 0.00 in Snow Light Snow
9:29 AM 12.2 °F 0.7 °F 6.8 °F 79% 29.67 in 1.5 mi WSW 8.1 mph - 0.00 in Snow Light Snow
9:41 AM 12.2 °F 0.7 °F 6.8 °F 79% 29.67 in 1.8 mi WSW 8.1 mph - 0.00 in Snow Light Snow
9:53 AM 12.0 °F 0.5 °F 7.0 °F 80% 29.67 in 1.2 mi SW 8.1 mph - 0.00 in Snow Light Snow
9:59 AM 12.2 °F 0.7 °F 6.8 °F 79% 29.67 in 3.0 mi SW 8.1 mph - 0.00 in Snow Light Snow
10:17 AM 12.2 °F 0.7 °F 6.8 °F 79% 29.67 in 1.8 mi SW 8.1 mph - 0.00 in Snow Light Snow
10:42 AM 12.2 °F 2.9 °F 6.8 °F 79% 29.66 in 5.0 mi SSW 5.8 mph - 0.00 in Snow Light Snow
10:49 AM 12.2 °F 1.7 °F 6.8 °F 79% 29.66 in 1.8 mi SSW 6.9 mph - 0.00 in Snow Light Snow
10:53 AM 12.9 °F 1.6 °F 7.0 °F 77% 29.66 in 1.8 mi SSW 8.1 mph - 0.00 in Snow Light Snow
10:56 AM 12.2 °F 0.7 °F 6.8 °F 79% 29.66 in 2.0 mi SSW 8.1 mph - 0.00 in Snow Light Snow
11:04 AM 12.2 °F 0.7 °F 6.8 °F 79% 29.66 in 5.0 mi SW 8.1 mph - 0.00 in Snow Light Snow
11:18 AM 12.2 °F 0.7 °F 6.8 °F 79% 29.65 in 7.0 mi SW 8.1 mph - 0.00 in   Overcast
11:53 AM 12.0 °F -0.4 °F 7.0 °F 80% 29.65 in 10.0 mi SSW 9.2 mph - 0.00 in   Overcast
12:53 PM 12.0 °F -2.0 °F 7.0 °F 80% 29.64 in 7.0 mi SSW 11.5 mph - 0.00 in Snow Light Snow
1:02 PM 12.2 °F -2.5 °F 6.8 °F 79% 29.63 in 8.0 mi SSW 12.7 mph - 0.00 in   Overcast
1:14 PM 12.2 °F -2.5 °F 6.8 °F 79% 29.63 in 2.5 mi SSW 12.7 mph - 0.00 in Snow Light Snow
1:25 PM 12.2 °F -2.5 °F 6.8 °F 79% 29.63 in 1.5 mi SSW 12.7 mph - 0.00 in Snow Light Snow
1:35 PM 12.2 °F -1.0 °F 6.8 °F 79% 29.63 in 1.8 mi SSW 10.4 mph - 0.00 in Snow Light Snow
1:40 PM 12.2 °F -2.5 °F 6.8 °F 79% 29.63 in 3.0 mi SSW 12.7 mph - 0.00 in Snow Light Snow
1:53 PM 12.9 °F -0.9 °F 7.0 °F 77% 29.63 in 10.0 mi SSW 11.5 mph - 0.00 in   Overcast
2:39 PM 12.2 °F -2.5 °F 6.8 °F 79% 29.61 in 7.0 mi South 12.7 mph - 0.00 in   Overcast
2:53 PM 12.9 °F -1.6 °F 7.0 °F 77% 29.61 in 6.0 mi South 12.7 mph - 0.00 in Snow Light Snow
3:11 PM 14.0 °F -0.2 °F 8.6 °F 79% 29.61 in 5.0 mi SSW 12.7 mph - 0.00 in Snow Light Snow
3:38 PM 14.0 °F -0.2 °F 8.6 °F 79% 29.60 in 2.0 mi South 12.7 mph - 0.00 in Snow Light Snow
3:49 PM 14.0 °F -0.2 °F 8.6 °F 79% 29.60 in 4.0 mi SSW 12.7 mph - 0.00 in Snow Light Snow
3:51 PM 14.0 °F -0.2 °F 8.6 °F 79% 29.60 in 5.0 mi South 12.7 mph - 0.00 in Snow Light Snow
3:53 PM 14.0 °F -0.2 °F 8.1 °F 77% 29.60 in 5.0 mi South 12.7 mph - 0.00 in Snow Light Snow
4:32 PM 15.8 °F 2.7 °F 8.6 °F 73% 29.59 in 2.0 mi South 11.5 mph - 0.00 in Snow Light Snow
4:53 PM 15.1 °F 1.1 °F 8.1 °F 74% 29.59 in 9.0 mi South 12.7 mph - 0.00 in   Overcast
5:11 PM 15.8 °F 1.4 °F 8.6 °F 73% 29.58 in 1.8 mi South 13.8 mph - 0.00 in Snow Light Snow
5:25 PM 15.8 °F 2.1 °F 8.6 °F 73% 29.58 in 7.0 mi SSW 12.7 mph - 0.00 in   Overcast
5:53 PM 15.1 °F 0.5 °F 8.1 °F 74% 29.57 in 7.0 mi SSW 13.8 mph - 0.00 in   Overcast
6:25 PM 14.0 °F -0.8 °F 8.6 °F 79% 29.57 in 2.5 mi South 13.8 mph - 0.00 in Snow Light Snow
6:35 PM 15.8 °F 2.1 °F 8.6 °F 73% 29.57 in 6.0 mi South 12.7 mph - 0.00 in Snow Light Snow
6:53 PM 15.1 °F 1.1 °F 9.0 °F 77% 29.57 in 3.0 mi South 12.7 mph - 0.00 in Snow Light Snow
7:10 PM 15.8 °F 2.1 °F 8.6 °F 73% 29.56 in 2.5 mi South 12.7 mph - 0.00 in Snow Light Snow
7:29 PM 15.8 °F 2.1 °F 10.4 °F 79% 29.56 in 1.2 mi South 12.7 mph - 0.00 in Snow Light Snow
7:53 PM 15.1 °F -0.1 °F 10.0 °F 80% 29.55 in 3.0 mi SSE 15.0 mph - 0.00 in Snow Light Snow
8:02 PM 15.8 °F 1.4 °F 10.4 °F 79% 29.55 in 1.8 mi SSE 13.8 mph - 0.00 in Snow Light Snow
8:16 PM 15.8 °F 0.9 °F 10.4 °F 79% 29.54 in 3.0 mi SSE 15.0 mph - 0.00 in Snow Light Snow
8:56 PM 15.8 °F 0.9 °F 10.4 °F 79% 29.54 in 1.5 mi SSE 15.0 mph - 0.00 in Snow Light Snow
9:31 PM 15.8 °F 0.9 °F 10.4 °F 79% 29.53 in 3.0 mi SSE 15.0 mph - 0.00 in Snow Light Snow
9:38 PM 15.8 °F 0.3 °F 10.4 °F 79% 29.52 in 1.8 mi SSE 16.1 mph - 0.00 in Snow Light Snow
9:46 PM 15.8 °F 0.9 °F 10.4 °F 79% 29.52 in 2.0 mi SSE 15.0 mph - 0.00 in Snow Light Snow
9:53 PM 16.0 °F 1.7 °F 12.0 °F 84% 29.52 in 1.5 mi SSE 13.8 mph - 0.00 in Snow Light Snow
10:10 PM 15.8 °F 0.3 °F 12.2 °F 86% 29.52 in 0.8 mi SSE 16.1 mph - 0.00 in Snow Light Snow
10:19 PM 15.8 °F 0.3 °F 12.2 °F 86% 29.52 in 1.5 mi SSE 16.1 mph - 0.00 in Snow Light Snow
10:27 PM 15.8 °F 0.9 °F 12.2 °F 86% 29.52 in 2.0 mi SSE 15.0 mph - 0.00 in Snow Light Snow
10:39 PM 17.6 °F 3.7 °F 12.2 °F 79% 29.51 in 3.0 mi South 13.8 mph - 0.00 in Snow Light Snow
10:44 PM 17.6 °F 3.7 °F 12.2 °F 79% 29.51 in 1.8 mi South 13.8 mph - 0.00 in Snow Light Snow
10:53 PM 17.1 °F 3.6 °F 12.9 °F 84% 29.52 in 1.5 mi South 12.7 mph - 0.00 in Snow Light Snow
11:11 PM 17.6 °F 3.2 °F 12.2 °F 79% 29.51 in 0.8 mi South 15.0 mph - 0.00 in Snow Light Snow
11:23 PM 17.6 °F 3.2 °F 12.2 °F 79% 29.51 in 1.0 mi South 15.0 mph - 0.00 in Snow Light Snow
11:46 PM 17.6 °F 3.7 °F 12.2 °F 79% 29.50 in 0.5 mi South 13.8 mph - 0.00 in Fog , Snow Light Snow
11:53 PM 17.1 °F 3.0 °F 12.9 °F 84% 29.51 in 1.0 mi South 13.8 mph - 0.00 in Snow Light Snow